SP3PDK-1 Weather Reports


time (UTC)temp
F
wind
direction
speed
knots
gust
knots
rain 1hr
in
rain 24hr
in
rain mn
in
humidity
%
barometer
mb
20260507002415 58 0.0 0.0 0.00 0.00 0.00 10 1006.8
20260507001417 59 0.0 0.0 0.00 0.00 0.00 10 1006.6
20260507000420 59 0.0 0.0 0.00 0.00 0.00 98 1007.0
20260506235418 59 0.0 0.0 0.00 0.00 0.00 97 1006.9
20260506234416 60 0.0 0.0 0.00 0.00 0.00 96 1007.0
20260506233413 60 0.0 0.0 0.00 0.00 0.00 95 1007.0
20260506232415 60 0.0 0.0 0.00 0.00 0.00 94 1006.9
20260506230417 59 0.0 0.0 0.00 0.00 0.00 99 1006.6
20260506225414 59 0.0 0.0 0.00 0.00 0.00 99 1006.4
20260506224416 59 0.0 0.0 0.00 0.00 0.00 99 1006.3
20260506223414 59 0.0 0.0 0.00 0.00 0.00 99 1006.5
20260506222417 60 0.0 0.0 0.00 0.00 0.00 99 1006.5
20260506221418 60 0.0 0.0 0.00 0.00 0.00 99 1006.6
20260506220417 60 0.0 0.0 0.00 0.00 0.00 99 1006.6
20260506215414 60 0.0 0.0 0.00 0.00 0.00 10 1006.5
20260506214414 60 0.0 0.0 0.00 0.00 0.00 10 1006.4
20260506213414 60 0.0 0.0 0.00 0.00 0.00 10 1006.4
20260506211417 61 0.0 0.0 0.00 0.00 0.00 10 1006.2
20260506210414 61 0.0 0.0 0.00 0.00 0.00 10 1006.3
20260506205417 61 0.0 0.0 0.00 0.00 0.00 99 1006.2
20260506204417 62 0.0 0.0 0.00 0.00 0.00 97 1006.5
20260506203414 62 0.0 0.0 0.00 0.00 0.00 99 1006.7
20260506202418 61 0.0 0.0 0.00 0.00 0.00 10 1006.4
20260506201418 62 0.0 0.0 0.00 0.00 0.00 10 1006.6
20260506195417 63 0.0 0.0 0.00 0.00 0.00 99 1006.6
20260506194415 63 0.0 0.0 0.00 0.00 0.00 98 1006.5
20260506193414 64 0.0 0.0 0.00 0.00 0.00 89 1006.4
20260506192414 65 0.0 0.0 0.00 0.00 0.00 87 1006.3
20260506191413 65 0.0 0.0 0.00 0.00 0.00 83 1006.3
20260506190418 67 0.0 0.0 0.00 0.00 0.00 71 1006.1
20260506185418 66 0.0 0.0 0.00 0.00 0.00 72 1006.0
20260506184417 64 0.0 0.0 0.00 0.00 0.00 76 1005.2
20260506183419 65 0.0 0.0 0.00 0.00 0.00 78 1004.9
20260506181413 66 0.0 0.0 0.00 0.00 0.00 76 1004.6
20260506180415 67 0.0 0.0 0.00 0.00 0.00 75 1004.6
20260506175415 68 0.0 0.0 0.00 0.00 0.00 69 1004.2
20260506174414 69 0.0 0.0 0.00 0.00 0.00 64 1004.2
20260506173413 71 0.0 0.0 0.00 0.00 0.00 57 1003.9
20260506171418 72 0.0 0.0 0.00 0.00 0.00 52 1004.0
20260506170418 72 0.0 0.0 0.00 0.00 0.00 50 1003.9
20260506164413 74 0.0 0.0 0.00 0.00 0.00 45 1004.0
20260506162414 74 0.0 0.0 0.00 0.00 0.00 44 1004.1
20260506161416 74 0.0 0.0 0.00 0.00 0.00 43 1003.9
20260506160414 75 0.0 0.0 0.00 0.00 0.00 43 1003.8
20260506155414 75 0.0 0.0 0.00 0.00 0.00 43 1003.8
20260506153413 76 0.0 0.0 0.00 0.00 0.00 42 1004.0
20260506152418 77 0.0 0.0 0.00 0.00 0.00 41 1003.9
20260506151414 77 0.0 0.0 0.00 0.00 0.00 39 1003.9
20260506150417 79 0.0 0.0 0.00 0.00 0.00 36 1003.9
20260506144418 79 0.0 0.0 0.00 0.00 0.00 36 1003.8
20260506143414 78 0.0 0.0 0.00 0.00 0.00 36 1003.8
20260506142415 78 0.0 0.0 0.00 0.00 0.00 36 1003.8
20260506135418 79 0.0 0.0 0.00 0.00 0.00 35 1003.9
20260506134417 79 0.0 0.0 0.00 0.00 0.00 35 1004.0
20260506132413 79 0.0 0.0 0.00 0.00 0.00 36 1003.8
20260506131418 79 0.0 0.0 0.00 0.00 0.00 37 1003.8
20260506130417 80 0.0 0.0 0.00 0.00 0.00 36 1003.9
20260506125418 79 0.0 0.0 0.00 0.00 0.00 37 1003.8
20260506124414 79 0.0 0.0 0.00 0.00 0.00 37 1003.8
20260506123415 79 0.0 0.0 0.00 0.00 0.00 37 1003.9
20260506121417 80 0.0 0.0 0.00 0.00 0.00 37 1003.9
20260506120414 80 0.0 0.0 0.00 0.00 0.00 37 1003.9
20260506115414 79 0.0 0.0 0.00 0.00 0.00 38 1003.9
20260506114414 79 0.0 0.0 0.00 0.00 0.00 37 1003.9
20260506113417 79 0.0 0.0 0.00 0.00 0.00 37 1003.9
20260506112414 78 0.0 0.0 0.00 0.00 0.00 38 1004.0
20260506111414 78 0.0 0.0 0.00 0.00 0.00 39 1004.0
20260506110418 77 0.0 0.0 0.00 0.00 0.00 39 1003.9
20260506105413 77 0.0 0.0 0.00 0.00 0.00 39 1004.0
20260506104413 76 0.0 0.0 0.00 0.00 0.00 40 1004.0
20260506102414 77 0.0 0.0 0.00 0.00 0.00 40 1004.1
20260506101414 76 0.0 0.0 0.00 0.00 0.00 41 1004.2
20260506100414 75 0.0 0.0 0.00 0.00 0.00 42 1004.2
20260506095418 75 0.0 0.0 0.00 0.00 0.00 43 1004.1
20260506094413 76 0.0 0.0 0.00 0.00 0.00 43 1004.1
20260506093418 74 0.0 0.0 0.00 0.00 0.00 45 1004.1
20260506092414 76 0.0 0.0 0.00 0.00 0.00 43 1003.9
20260506085418 73 0.0 0.0 0.00 0.00 0.00 50 1004.2
20260506084414 72 0.0 0.0 0.00 0.00 0.00 51 1004.1
20260506083413 73 0.0 0.0 0.00 0.00 0.00 51 1004.1
20260506082413 73 0.0 0.0 0.00 0.00 0.00 54 1004.1
20260506081413 71 0.0 0.0 0.00 0.00 0.00 55 1004.1
20260506080414 70 0.0 0.0 0.00 0.00 0.00 56 1004.1
20260506072413 69 0.0 0.0 0.00 0.00 0.00 59 1004.1
20260506071413 68 0.0 0.0 0.00 0.00 0.00 60 1004.2
20260506070414 67 0.0 0.0 0.00 0.00 0.00 60 1004.3
20260506062418 63 0.0 0.0 0.00 0.00 0.00 69 1004.5
20260506061414 63 0.0 0.0 0.00 0.00 0.00 69 1004.4
20260506060417 63 0.0 0.0 0.00 0.00 0.00 69 1004.0
20260506051414 62 0.0 0.0 0.00 0.00 0.00 72 1003.8
20260506050413 61 0.0 0.0 0.00 0.00 0.00 72 1003.8
20260506044415 61 0.0 0.0 0.00 0.00 0.00 72 1004.0
20260506043418 61 0.0 0.0 0.00 0.00 0.00 72 1003.8
20260506041417 60 0.0 0.0 0.00 0.00 0.00 77 1003.7
20260506040418 59 0.0 0.0 0.00 0.00 0.00 80 1003.8
20260506035418 58 0.0 0.0 0.00 0.00 0.00 85 1003.3
20260506034418 57 0.0 0.0 0.00 0.00 0.00 87 1003.1
20260506033416 58 0.0 0.0 0.00 0.00 0.00 86 1003.4
20260506032417 58 0.0 0.0 0.00 0.00 0.00 83 1003.6
20260506031418 58 0.0 0.0 0.00 0.00 0.00 82 1003.7
20260506030418 57 0.0 0.0 0.00 0.00 0.00 84 1003.7
20260506025416 58 0.0 0.0 0.00 0.00 0.00 80 1003.7
20260506024414 59 0.0 0.0 0.00 0.00 0.00 77 1003.9
20260506023414 58 0.0 0.0 0.00 0.00 0.00 81 1004.1
20260506022418 59 0.0 0.0 0.00 0.00 0.00 77 1004.2
20260506021418 59 0.0 0.0 0.00 0.00 0.00 77 1004.2
20260506020417 59 0.0 0.0 0.00 0.00 0.00 77 1004.3
20260506015418 60 0.0 0.0 0.00 0.00 0.00 77 1004.4
20260506014413 60 0.0 0.0 0.00 0.00 0.00 74 1004.3
20260506013417 61 0.0 0.0 0.00 0.00 0.00 73 1004.2
20260506011416 61 0.0 0.0 0.00 0.00 0.00 74 1004.4
20260506010414 60 0.0 0.0 0.00 0.00 0.00 76 1004.4
20260506005415 60 0.0 0.0 0.00 0.00 0.00 76 1004.3
20260506004418 60 0.0 0.0 0.00 0.00 0.00 76 1004.3
20260506003417 60 0.0 0.0 0.00 0.00 0.00 76 1004.2